Overview Statistics Trail Chart Weather Telemetry Raw packets
 

This is the latest recevied weather packets stored in our database for station/object K1BES. If no packets are shown the sender has not sent any weather packets the latest 10 day(s).

<< 107 108 109 110 111 112 113 >>
Time Temp. Humidity Pressure Rain* Wind** Luminosity Snow
1787836066 30.56° C 73% 1018.9 hPa 0 mm - 284 W/m² -
1787835763 30.56° C 74% 1018.4 hPa 0 mm - 277 W/m² -
1787835461 30.56° C 73% 1018.5 hPa 0 mm - 213 W/m² -
1787835157 30° C 75% 1018.5 hPa 0 mm - 241 W/m² -
1787834856 30.56° C 74% 1018.5 hPa 0 mm - 211 W/m² -
1787834551 30.56° C 74% 1018.7 hPa 0 mm - 97 W/m² -
1787834246 30° C 77% 1018.3 hPa 0 mm - 77 W/m² -
1787833943 29.44° C 77% 1018.4 hPa 0 mm - 72 W/m² -
1787833643 28.33° C 80% 1018.4 hPa 0 mm - 78 W/m² -
1787833339 27.78° C 83% 1018.1 hPa 0 mm - 64 W/m² -
1787833034 27.22° C 85% 1018.1 hPa 0 mm - 60 W/m² -
1787832729 26.67° C 86% 1018.2 hPa 0 mm - 70 W/m² -
1787832429 26.67° C 86% 1018.1 hPa 0 mm - 88 W/m² -
1787832128 26.67° C 87% 1018.2 hPa 0 mm - 100 W/m² -
1787831826 26.11° C 87% 1018.2 hPa 0 mm - 108 W/m² -
1787831522 25.56° C 87% 1018.1 hPa 0 mm - 104 W/m² -
1787831220 25.56° C 88% 1017.8 hPa 0 mm - 92 W/m² -
1787830916 25.56° C 88% 1017.9 hPa 0 mm - 79 W/m² -
1787830615 25° C 88% 1017.6 hPa 0 mm - 63 W/m² -
1787830316 25° C 87% 1017.6 hPa 0 mm - 48 W/m² -
1787830015 25° C 87% 1017.6 hPa 0 mm - 34 W/m² -
1787829710 25° C 87% 1017.4 hPa 0 mm - 25 W/m² -
1787829405 25° C 86% 1017.7 hPa 0 mm - 18 W/m² -
1787829101 25° C 86% 1017.6 hPa 0 mm - 9 W/m² -
1787828801 25° C 88% 1017.5 hPa 0 mm - 5 W/m² -

* Rain latest hour (hover to see other rain measurements)
** Current wind speed in m/s (hover to see current wind gust speed)